Regional Weather Roundup
Issued by NWS State College, PA

Home | Current Version | Previous Version | Text Only | Print | Product List | Glossary On
Versions: 1 2 3 4 5 6 7 8 9 10 11 12 13 14 15 16 17 18 19 20 21 22 23 24 25 26 27 28 29 30 31 32 33 34 35 36 37 38 39 40 41 42 43 44 45 46 47 48 49 50
000
ASUS41 KCTP 300810
RWRCTP

REGIONAL WEATHER ROUNDUP
NATIONAL WEATHER SERVICE STATE COLLEGE PA
400 AM EDT WED JUL 30 2014

Note: "fair" indicates few or no clouds below 12,000 feet with no
significant weather and/or obstructions to visibility.

* = STATION THAT DOES NOT REPORT PRECIPITATION /E.G. RAIN...SNOW...ETC/
    THUNDER OR FOG.

PAZ002>004-007>009-013>016-020>023-029>032-300900-
WESTERN PENNSYLVANIA

CITY           SKY/WX    TMP DP  RH WIND       PRES   REMARKS
ERIE           CLOUDY    61  53  75 S8        29.96S
MEADVILLE      MOCLDY    56  50  80 S5        29.99F
FRANKLIN*      CLOUDY    54  48  82 S6        30.02S
NEW CASTLE       N/A     56  51  83 CALM      30.02S
BEAVER COUNTY  NOT AVBL
BUTLER*        CLEAR     52  48  87 CALM      30.04S
PITTSBURGH INT CLEAR     55  50  83 CALM      30.03S
PITTSBURGH     CLEAR     53  49  86 S6        30.03S
INDIANA*       CLOUDY    52  50  93 CALM      30.08R
LATROBE        CLEAR     52  52 100 SW3       30.05S
WASHINGTON CO* CLEAR     48  46  93 CALM      30.04S
$$

PAZ004>006-010>012-017>019-024>028-033>037-041-042-045-046-049>053-300900-
CENTRAL PENNSYLVANIA

CITY           SKY/WX    TMP DP  RH WIND       PRES   REMARKS
BRADFORD       CLOUDY    53  49  86 SW3       30.02S
DUBOIS         MOCLDY    50  49  96 CALM      30.03R
CLEARFIELD     FOG       50  49  96 CALM      30.04S VSB 1/2
JOHNSTOWN      CLEAR     51  47  86 SW7       30.05S
ALTOONA        CLEAR     51  50  96 CALM      30.05F
STATE COLLEGE  CLEAR     52  50  93 CALM      30.03S
WILLIAMSPORT   PTCLDY    56  53  90 CALM      30.00S
SELINSGROVE    CLEAR     52  51  97 CALM      30.02S FOG
FT INDIANTOWN  CLEAR     52  51  99 N1        30.02R
CAPITAL CITY   CLEAR     53  51  93 SW5       30.02S
HARRISBURG     PTCLDY    57  54  89 CALM      30.01S
YORK           CLEAR     50  49  96 W3        30.02S
$$

PAZ038>040-043-044-047-048-054-055-060>062-067>071-300900-
EASTERN PENNSYLVANIA

CITY           SKY/WX    TMP DP  RH WIND       PRES   REMARKS
SCRANTON       CLOUDY    54  49  83 E5        30.01S
MOUNT POCONO   PTCLDY    45  43  93 NW3       30.03R
ALLENTOWN      CLEAR     56  52  86 CALM      30.01R
QUAKERTOWN*    SUNNY     52  50  93 CALM      30.01S
READING        CLEAR     56  53  90 CALM      30.00S
LANCASTER      CLEAR     55  52  89 W6        30.01S
COATESVILLE    SUNNY     54  54 100 NW7       30.01S
POTTSTOWN      CLEAR     54  52  93 CALM      30.01S
BLUE BELL      PTCLDY    57  55  94 CALM      29.99R
DOYLESTOWN     CLEAR     55  54  96 CALM      29.99S
WILLOW GROVE   NOT AVBL
NORTH PHILA    PTCLDY    63  53  70 NW6       30.00R
PHILADELPHIA   PTCLDY    64  53  67 NW7       29.99S
$$



USA.gov is the U.S. government's official web portal to all federal, state and local government web resources and services.